BEIDOU-3S IGSO-2S

Last updated on Fri Sep 19 2025 00:02:49 GMT+0000 (Coordinated Universal Time)

1 40938U 15053A 25260.62821684 -.00000101 00000+0 00000+0 0 9991 2 40938 49.6475 262.0216 0062308 189.5151 225.6705 1.00289767 36623
UTC large
Height (km)
Speed (km/s)
/
Latitude / Longitude
Inclination (degrees)
Orbital Period (minutes)
Azimuth
Elevation
Range (km)
Doppler Factor

Next 0 passes for location: London (51.5072 / 0.1276)

Sorry there are no passes over London.